Regional Weather Roundup
Issued by NWS Sterling, VA

Home | Current Version | Previous Version | Graphics & Text | Print | Product List | Glossary On
Versions: 1 2 3 4 5 6 7 8 9 10 11 12 13 14 15 16 17 18 19 20 21 22 23 24 25 26 27 28 29 30 31 32 33 34 35 36 37 38 39 40 41 42 43 44 45 46 47 48 49 50
000
ASUS41 KLWX 220911
RWRLWX

REGIONAL WEATHER ROUNDUP
NATIONAL WEATHER SERVICE BALTIMORE MD/WASHINGTON DC
500 AM EDT SAT APR 22 2017

Note: "FAIR" indicates few or no clouds below 12,000 feet
with no significant weather and/or obstructions to visibility.
 TC=TEMPERATURE CELSIUS

 * =Non NWS site. Station does not report precipitation (e.g. rain,
    snow, etc.), thunder, or fog.

DCZ001-MDZ009-015-VAZ040>042-051-053>054-221000-
WASHINGTON METRO

CITY           SKY/WX    TMP DP  RH WIND       PRES   REMARKS
WASHINGTON NAT LGT RAIN  61  59  93 NE10      29.86S FOG
DULLES         CLOUDY    63  59  87 NE7       29.86R
ANDREWS AFB    CLOUDY    57  57 100 NE5       29.86R
FT BELVOIR     LGT RAIN  61  59  93 CALM      29.86R
QUANTICO       LGT RAIN  64  63  96 NE7       29.86R
COLLEGE PARK*  CLOUDY    58  56  94 CALM      29.86S
LEESBURG*      LGT RAIN  63  63 100 N8        29.88R
MANASSAS*        N/A     63  61  93 N6        29.86R

$$

MDZ006>007-011-014-221000-
BALTIMORE METRO

CITY           SKY/WX    TMP DP  RH WIND       PRES   REMARKS
BWI AIRPORT    LGT RAIN  59  58  96 NE6       29.86S FOG
MD SCIENCE CTR   N/A     60  55  83 MISG      29.87R
MARTIN STATE   LGT RAIN  59  59 100 CALM      29.89R
ANNAPOLIS      LGT RAIN  59  57  93 NE5       29.86R FOG
FORT MEADE*    CLOUDY    57  55  94 CALM      29.89F

$$

MDZ012-015-019>023-221000-
MARYLAND EASTERN SHORE

CITY           SKY/WX    TMP DP  RH WIND       PRES   REMARKS
OCEAN CITY     CLOUDY    53  53 100 NE5       29.86F
SALISBURY      CLOUDY    53  53 100 E5        29.86S
BAY BRIDGE AP* LGT RAIN  57  55  94 N3        29.88R FOG
CAMBRIDGE*     CLOUDY    54  54 100 VRB5      29.87R
EASTON*        LGT RAIN  56  54  93 CALM      29.91R

$$

MDZ017>025-221000-
SOUTHERN MARYLAND

CITY           SKY/WX    TMP DP  RH WIND       PRES   REMARKS
PATUXENT RIVER LGT RAIN  58  58 100 NE7       29.85S
ST INIGOES     CLOUDY    59  58  96 NE6       29.84R
LEONARDTOWN*   CLOUDY    57  55  94 CALM      29.86F

$$

MDZ003>005-221000-
NORTH CENTRAL MARYLAND

CITY           SKY/WX    TMP DP  RH WIND       PRES   REMARKS
FREDERICK*     CLOUDY    63  63 100 N9        29.91R FOG
HAGERSTOWN APT CLOUDY    58  45  62 N9        29.91R
WESTMINSTER*   CLOUDY    61  57  88 NE6       29.89R FOG

$$

MDZ501>502-221000-
WESTERN MARYLAND

CITY           SKY/WX    TMP DP  RH WIND       PRES   REMARKS
OAKLAND*       CLOUDY    41  39  93 N5        29.94S
CUMBERLAND*    CLOUDY    54  43  66 N6        29.98F

$$

VAZ025>031-221000-
SHENANDOAH VALLEY

CITY           SKY/WX    TMP DP  RH WIND       PRES   REMARKS
WINCHESTER*    LGT RAIN  55  45  67 NW7       29.91R
FRONT ROYAL*   CLOUDY    59  50  72 N3        29.90R
LURAY*         CLOUDY    61  48  63 N8        29.89R
NEW MARKET*    CLOUDY    61  46  57 NE8       29.89R
STAUNTON*      DRIZZLE   61  56  85 E3        29.89F
WAYNESBORO*    CLOUDY    62  62 100 CALM      29.88S

$$

WVZ021-048>050-054>055-221000-
EASTERN WEST VIRGINIA PANHANDLE

CITY           SKY/WX    TMP DP  RH WIND       PRES   REMARKS
MARTINSBURG    LGT RAIN  59  45  59 NW12      29.90R
PETERSBURG*    CLOUDY    56  53  89 CALM      29.92F

$$

VAZ036>039-050-221000-
CENTRAL FOOTHILLS

CITY           SKY/WX    TMP DP  RH WIND       PRES   REMARKS
CHARLOTTESVILL LGT RAIN  63  61  93 CALM      29.86R
CULPEPER*      CLOUDY    64  64  98 CALM      29.87R FOG
ORANGE*        LGT RAIN  63  59  88 CALM      29.85S
GORDONSVILLE*  CLOUDY    63  60  89 CALM      29.85S
WARRENTON*     CLOUDY    65  61  87 CALM      29.85R FOG

$$

VAZ055>057-221000-
NORTH AND CENTRAL PIEDMONT

CITY           SKY/WX    TMP DP  RH WIND       PRES   REMARKS
FREDERICKSBRG* LGT RAIN  64  64 100 NE3       29.85R
STAFFORD*      DRIZZLE   63  63 100 CALM      29.89R

$$

NCZ024-NYZ072-PAZ021-071-VAZ022-071-221000-
OTHER REGIONAL OBSERVATIONS

CITY           SKY/WX    TMP DP  RH WIND       PRES   REMARKS
NEW YORK CITY  CLOUDY    50  48  93 CALM      29.92S
PHILADELPHIA   CLOUDY    56  52  86 NE7       29.88F FOG
PITTSBURGH     CLOUDY    46  40  79 N13       29.99F
ROANOKE        LGT RAIN  63  62  97 W5        29.89F
RICHMOND       CLOUDY    67  64  90 W5        29.83F
RALEIGH        MOCLDY    65  64  97 S5        29.88S FOG

$$

ANZ530>537-221000-
MARINE OBSERVATIONS

STATION/POSITION TIME  TEMP    WIND        PRES
                       AIR SEA DIR/SP/G
                 (UTC) (F)     (DEG/KT/KT) (MB)
THOMAS PT LIGHT  0900   57 60   30/  7/  8   N/A
BALT KEY BRIDGE  0842   59      50/  4/  6 1011.3S
COVE POINT       0842   57      90/  4/  5 1011.4F
LEWISETTA        0842   61 65   70/  7/  8 1010.2R
SOLOMONS ISLAND  0842   58 63   10/  5/  5   N/A
PINEY POINT      0848           80/  4/  6   N/A

$$




USA.gov is the U.S. government's official web portal to all federal, state and local government web resources and services.